CW0728 Weather Reports


Display with metric or nautical units.
time (UTC)temp
F
wind
direction
speed
MPH
gust
MPH
rain 1hr
in
rain 24hr
in
rain mn
in
humidity
%
barometer
mb
20190617105415 60 325 0.0 0.0 0.00 0.14 0.01 92 1010.3
20190617103915 60 289 0.0 0.0 0.00 0.14 0.01 94 1010.3
20190617101915 58 253 0.0 0.0 0.00 0.14 0.01 98 1010.2
20190617101415 58 292 0.0 0.0 0.00 0.14 0.01 99 1010.2
20190617100915 58 292 0.0 0.0 0.00 0.14 0.01 99 1010.0
20190617100415 58 292 0.0 0.0 0.00 0.14 0.01 99 1010.0
20190617095915 58 292 0.0 0.0 0.00 0.14 0.01 99 1010.0
20190617094415 58 292 0.0 0.0 0.00 0.14 0.01 99 1009.7
20190617093915 58 292 0.0 0.0 0.00 0.14 0.01 100 1009.7
20190617092915 58 292 0.0 0.0 0.00 0.14 0.01 100 1009.7
20190617091915 58 292 0.0 0.0 0.00 0.14 0.01 100 1009.5
20190617091415 58 292 0.0 0.0 0.00 0.14 0.01 100 1009.5
20190617090915 58 292 0.0 0.0 0.00 0.14 0.01 100 1009.3
20190617085915 59 292 0.0 0.0 0.00 0.14 0.01 100 1009.3
20190617085415 59 292 0.0 0.0 0.00 0.14 0.01 100 1009.1
20190617084914 59 292 0.0 0.0 0.00 0.14 0.01 100 1009.1
20190617083915 59 292 0.0 0.0 0.00 0.14 0.01 100 1008.7
20190617082915 60 292 0.0 0.0 0.00 0.14 0.01 100 1008.7
20190617081915 60 289 0.0 0.0 0.00 0.14 0.01 100 1008.5
20190617075415 61 318 0.0 0.0 0.00 0.14 0.01 100 1007.7
20190617074915 61 318 0.0 0.0 0.00 0.14 0.01 100 1007.7
20190617074415 61 318 0.0 0.0 0.00 0.14 0.01 100 1007.7
20190617073915 62 318 0.0 0.0 0.00 0.14 0.01 100 1007.5
20190617073415 62 318 0.0 0.0 0.00 0.14 0.01 100 1007.5
20190617072415 62 318 0.0 0.0 0.00 0.14 0.01 100 1007.3
20190617071915 62 318 0.0 0.0 0.00 0.14 0.01 100 1007.3
20190617071415 62 316 0.0 0.0 0.00 0.14 0.01 100 1007.3
20190617070914 63 313 0.0 0.0 0.00 0.14 0.01 100 1007.1
20190617064915 63 253 0.0 0.0 0.00 0.14 0.01 100 1007.2
20190617062915 64 78 0.0 0.0 0.00 0.14 0.01 100 1007.1
20190617060414 63 155 0.0 0.0 0.00 0.14 0.01 100 1007.1
20190617053414 62 155 0.0 0.0 0.01 0.14 0.01 100 1007.4
20190617052915 63 155 0.0 0.0 0.01 0.14 0.01 100 1007.4
20190617051915 63 155 0.0 0.0 0.01 0.14 0.01 100 1007.3
20190617045915 62 155 0.0 0.0 0.01 0.14 0.01 100 1007.5
20190617045415 62 155 0.0 0.0 0.01 0.14 0.01 100 1007.5
20190617044415 62 155 0.0 0.0 0.00 0.13 0.00 100 1007.5
20190617042914 62 155 0.0 0.0 0.00 0.13 0.00 100 1007.2
20190617042415 62 155 0.0 0.0 0.00 0.13 0.00 100 1007.0
20190617041914 62 155 0.0 0.0 0.00 0.13 0.00 100 1007.0
20190617035915 62 155 0.0 0.0 0.00 0.13 0.13 100 1007.1
20190617035415 62 155 0.0 0.0 0.00 0.13 0.13 100 1007.1
20190617033915 62 155 0.0 0.0 0.00 0.13 0.13 100 1007.1
20190617033415 62 155 0.0 0.0 0.00 0.13 0.13 100 1007.1
20190617032414 62 155 0.0 0.0 0.00 0.13 0.13 100 1007.2
20190617031415 62 155 0.0 0.0 0.00 0.13 0.13 100 1007.2
20190617030914 62 155 0.0 0.0 0.00 0.13 0.13 100 1007.1
20190617025915 62 155 0.0 0.0 0.01 0.13 0.13 100 1007.1
20190617025414 62 155 0.0 0.0 0.01 0.13 0.13 100 1007.1
20190617024915 62 155 0.0 0.0 0.01 0.13 0.13 100 1007.1
20190617023414 62 155 0.0 0.0 0.01 0.13 0.13 100 1007.2
20190617022914 62 155 0.0 0.0 0.01 0.13 0.13 100 1007.2
20190617022414 62 151 0.0 0.0 0.01 0.13 0.13 100 1007.4
20190617020414 62 151 0.0 0.0 0.01 0.13 0.13 100 1007.4
20190617014414 62 151 0.0 0.0 0.00 0.12 0.12 100 1007.6
20190617013914 62 151 0.0 0.0 0.00 0.12 0.12 100 1007.7
20190617013414 62 151 0.0 0.0 0.00 0.12 0.12 100 1007.7
20190617011914 61 151 0.0 0.0 0.00 0.12 0.12 100 1007.7
20190617011414 61 155 0.0 0.0 0.00 0.12 0.12 100 1007.7
20190617010914 61 144 0.0 0.0 0.00 0.12 0.12 100 1007.5
20190617005914 61 144 0.0 0.0 0.00 0.12 0.12 100 1007.5
20190617004914 61 144 0.0 0.0 0.00 0.12 0.12 100 1007.5
20190617004415 61 144 0.0 0.0 0.00 0.12 0.12 100 1007.5
20190617003914 61 144 0.0 0.0 0.00 0.12 0.12 99 1007.4
20190617001914 61 145 0.0 0.0 0.00 0.12 0.12 99 1007.5
20190617000414 61 145 0.0 0.0 0.00 0.12 0.12 98 1007.4
20190616235914 61 144 0.0 0.0 0.00 0.12 0.12 98 1007.4
20190616234914 62 150 0.0 0.0 0.00 0.12 0.12 97 1007.3
20190616232414 64 144 0.0 0.0 0.00 0.12 0.12 98 1007.3
20190616230414 64 144 0.0 0.0 0.00 0.12 0.12 98 1007.3
20190616225414 65 151 0.0 0.0 0.00 0.12 0.12 98 1007.5
20190616224914 65 154 0.0 0.0 0.00 0.12 0.12 98 1007.5
20190616223414 64 154 0.0 0.0 0.01 0.12 0.12 98 1007.5
20190616222914 64 154 0.0 0.0 0.01 0.12 0.12 98 1007.5
20190616222414 64 151 0.0 0.0 0.01 0.12 0.12 98 1007.5
20190616221914 64 154 0.0 0.0 0.01 0.12 0.12 98 1007.5
20190616221414 64 154 0.0 0.0 0.01 0.12 0.12 98 1007.5
20190616215414 64 185 0.0 0.0 0.01 0.12 0.12 97 1007.5
20190616214914 64 189 0.0 0.0 0.01 0.12 0.12 96 1007.5
20190616213914 65 64 0.0 1.0 0.00 0.11 0.11 97 1008.0
20190616212914 65 151 0.0 0.0 0.01 0.11 0.11 96 1008.0
20190616212414 66 148 0.0 0.0 0.01 0.11 0.11 96 1008.0
20190616211914 66 154 0.0 0.0 0.01 0.11 0.11 96 1008.0
20190616211414 66 157 0.0 0.0 0.01 0.11 0.11 96 1008.0
20190616205414 67 117 0.0 1.0 0.01 0.11 0.11 96 1007.9
20190616204414 67 116 0.0 0.0 0.02 0.11 0.11 96 1007.9
20190616203914 67 110 0.0 0.0 0.02 0.11 0.11 96 1007.9
20190616203414 67 110 0.0 0.0 0.02 0.11 0.11 96 1007.9
20190616202914 67 110 0.0 0.0 0.02 0.11 0.11 96 1007.9
20190616202414 66 107 0.0 0.0 0.02 0.11 0.11 96 1008.2
20190616201414 66 103 0.0 0.0 0.02 0.10 0.10 97 1008.2
20190616200414 66 103 0.0 0.0 0.02 0.10 0.10 97 1008.1
20190616194914 66 103 0.0 0.0 0.02 0.10 0.10 96 1008.1
20190616194414 65 95 0.0 0.0 0.03 0.10 0.10 96 1008.1
20190616193914 65 89 0.0 0.0 0.03 0.10 0.10 96 1008.1
20190616193414 66 191 0.0 0.0 0.02 0.09 0.09 95 1008.1
20190616192914 66 151 0.0 0.0 0.03 0.09 0.09 95 1008.1
20190616192414 66 154 0.0 0.0 0.03 0.09 0.09 96 1008.0
20190616191914 66 154 0.0 0.0 0.03 0.09 0.09 96 1008.0
20190616191414 66 151 0.0 0.0 0.03 0.09 0.09 96 1008.0
20190616190414 66 151 0.0 0.0 0.03 0.09 0.09 95 1008.1
20190616185914 66 150 0.0 0.0 0.02 0.08 0.08 95 1008.1
20190616185414 66 151 0.0 0.0 0.02 0.08 0.08 95 1008.3
20190616184415 66 150 0.0 0.0 0.03 0.08 0.08 94 1008.3
20190616183914 66 147 0.0 0.0 0.03 0.08 0.08 95 1008.3
20190616183414 66 138 0.0 0.0 0.03 0.07 0.08 94 1008.3
20190616180914 66 136 0.0 0.0 0.02 0.06 0.06 94 1008.6
20190616180414 66 136 0.0 0.0 0.02 0.06 0.06 94 1008.6
20190616175914 66 134 0.0 0.0 0.04 0.06 0.06 94 1008.6
20190616174414 66 134 0.0 0.0 0.06 0.06 0.06 94 1008.7
20190616173914 65 134 0.0 0.0 0.06 0.06 0.06 93 1008.7
20190616173414 65 134 0.0 0.0 0.06 0.06 0.06 93 1008.7
20190616172914 65 134 0.0 0.0 0.05 0.05 0.05 93 1008.7
20190616172414 65 134 0.0 0.0 0.05 0.05 0.05 92 1008.6
20190616171914 65 134 0.0 0.0 0.05 0.05 0.05 92 1008.6
20190616165414 65 131 0.0 0.0 0.03 0.03 0.03 89 1008.7
20190616164414 65 130 0.0 0.0 0.02 0.02 0.02 87 1008.7
20190616163914 65 130 0.0 0.0 0.01 0.01 0.01 86 1008.8
20190616163414 65 130 0.0 0.0 0.01 0.01 0.01 85 1008.8
20190616162414 66 130 0.0 0.0 0.00 0.00 0.00 84 1008.6
20190616161914 66 130 0.0 0.0 0.00 0.00 0.00 83 1008.6
20190616161414 66 130 0.0 0.0 0.00 0.00 0.00 81 1008.6
20190616160914 66 130 0.0 0.0 0.00 0.00 0.00 79 1008.6
20190616154914 69 130 0.0 0.0 0.00 0.00 0.00 76 1008.7
20190616153914 69 130 0.0 0.0 0.00 0.00 0.00 74 1008.5
20190616152414 71 175 0.0 0.0 0.00 0.00 0.00 75 1008.2
20190616151914 71 175 0.0 0.0 0.00 0.00 0.00 74 1008.2
20190616151414 71 175 0.0 0.0 0.00 0.00 0.00 74 1008.2
20190616145414 71 208 0.0 0.0 0.00 0.00 0.00 72 1008.3
20190616144914 71 239 0.0 0.0 0.00 0.00 0.00 71 1008.3
20190616141914 71 268 0.0 0.0 0.00 0.00 0.00 72 1008.4
20190616140914 70 251 0.0 1.0 0.00 0.00 0.00 72 1008.6
20190616140414 70 222 0.0 1.0 0.00 0.00 0.00 72 1008.6
20190616134914 70 224 0.0 0.0 0.00 0.00 0.00 73 1008.7
20190616132914 69 224 0.0 0.0 0.00 0.00 0.00 73 1008.8
20190616131914 69 199 0.0 0.0 0.00 0.00 0.00 73 1008.8
20190616125914 69 210 0.0 0.0 0.00 0.00 0.00 74 1008.9
20190616124914 69 223 0.0 0.0 0.00 0.00 0.00 73 1008.7
20190616122914 69 229 0.0 1.0 0.00 0.00 0.00 73 1008.6
20190616121414 68 198 0.0 0.0 0.00 0.00 0.00 74 1008.5
20190616114414 66 229 0.0 0.0 0.00 0.00 0.00 79 1008.7
20190616113914 66 253 0.0 0.0 0.00 0.00 0.00 80 1008.8
20190616111414 65 227 0.0 0.0 0.00 0.00 0.00 82 1008.6
20190616110914 64 220 0.0 0.0 0.00 0.00 0.00 82 1008.5
20190616110414 64 215 0.0 0.0 0.00 0.00 0.00 84 1008.5